Regional Weather Roundup
Issued by NWS Upton, NY

Current Version | Previous Version | Text Only | Print | Product List | Glossary On
Versions: 1 2 3 4 5 6 7 8 9 10 11 12 13 14 15 16 17 18 19 20 21 22 23 24 25 26 27 28 29 30 31 32 33 34 35 36 37 38 39 40 41 42 43 44 45 46 47 48 49 50
000
ASUS41 KOKX 201805
RWROKX

REGIONAL WEATHER ROUNDUP
NATIONAL WEATHER SERVICE NEW YORK NY
200 PM EDT SAT SEP 20 2014

NOTE: "FAIR" INDICATES FEW OR NO CLOUDS BELOW 12,000 FEET WITH NO
SIGNIFICANT WEATHER AND/OR OBSTRUCTIONS TO VISIBILITY.

NYZ071-072-176-178-NJZ106-104-201900-
NEW YORK CITY METRO AREA


CITY           SKY/WX    TMP DP  RH WIND       PRES   REMARKS
CENTRAL PARK   MOSUNNY   73  57  57 VRB7      30.23F
LAGUARDIA APRT PTSUNNY   72  56  57 S17       30.20F
KENNEDY INTL   PTSUNNY   75  58  55 S17       30.23F
NEWARK/LIBERTY PTSUNNY   73  59  61 SE13G18   30.19F
BRNX BOT. GARD   N/A     72  57  60 S3        30.20F
TETERBORO      MOSUNNY   74  57  55 S14G23    30.19F
$$

NYZ177-179-078>081-201900-
LONG ISLAND NEW YORK

CITY           SKY/WX    TMP DP  RH WIND       PRES   REMARKS
FARMINGDALE    PTSUNNY   72  58  61 S16       30.22F
ISLIP          PTSUNNY   70  56  61 S13       30.22F
SHIRLEY        PTSUNNY   72  56  57 S17G25    30.23F
WESTHAMPTON    MOSUNNY   72  54  53 S13       30.25F
MONTAUK POINT    N/A     72  54  53 S7        30.26F
$$

NYZ052-065-067-201900-
HUDSON VALLEY

CITY           SKY/WX    TMP DP  RH WIND       PRES   REMARKS
WHITE PLAINS   PTSUNNY   73  55  53 S15       30.20F
NEWBURGH       PTSUNNY   73  57  56 SW12G17   30.19F
MONTGOMERY     PTSUNNY   73  55  53 S16       30.16F
POUGHKEEPSIE   MOSUNNY   74  55  51 S7G22     30.16F
ALBANY         PTSUNNY   73  56  54 S9G21     30.11F
$$

NJZ001-105-106-008-010-013-015-019>022-104-201900-
NEW JERSEY

CITY           SKY/WX    TMP DP  RH WIND       PRES   REMARKS
NEWARK/LIBERTY PTSUNNY   73  59  61 SE13G18   30.19F
TETERBORO      MOSUNNY   74  57  55 S14G23    30.19F
CALDWELL       PTSUNNY   73  57  57 S14G20    30.19F
MORRISTOWN     PTSUNNY   75  55  50 S10       30.19F
SOMERVILLE     PTSUNNY   76  56  49 S8        30.17F
LINDEN         MOCLDY    79  58  49 S8G17     30.21F
SUSSEX         MOSUNNY   77  56  48 SW9G22    30.17F
ANDOVER          N/A     72  56  57 VRB7G17   30.18F
TRENTON        PTSUNNY   75  56  51 S13       30.18F
MILLVILLE      PTSUNNY   76  60  57 SE12      30.19F
ATLANTIC CITY  CLOUDY    76  60  57 SE10      30.21F
WRIGHTSTOWN    MOSUNNY   74  59  59 SE13      30.17F
TOMS RIVER     CLOUDY    73  59  60 S8        30.21F
BELMAR         CLOUDY    72  57  60 SE12G17   30.21F
$$

PAZ047>061-062-071-201900-
EASTERN PENNSYLVANIA

CITY           SKY/WX    TMP DP  RH WIND       PRES   REMARKS
PHILADELPHIA   MOSUNNY   76  58  53 S8        30.18F
ALLENTOWN      PTSUNNY   76  56  49 S9G16     30.18F
SCRANTON       CLOUDY    71  56  58 SW10G21   30.15F
$$

CTZ002-004>006-009-010-012-RIZ004-006-007-MAZ004-011-015-201900-
SOUTHERN NEW ENGLAND
 IN CT

CITY           SKY/WX    TMP DP  RH WIND       PRES   REMARKS
BRADLEY INTL   PTSUNNY   74  55  51 S15G23    30.18F
HARTFORD       CLOUDY    71  55  56 S10G20    30.20F
DANBURY        MOSUNNY   71  56  58 S7G21     30.22F
WTRBRY/OXFORD  PTSUNNY   70  55  60 SW9G17    30.23F
BRIDGEPORT     PTSUNNY   73  56  54 S13       30.22F
MERIDEN        MOSUNNY   73  54  51 S16       30.21F
NEW HAVEN      PTSUNNY   73  55  53 S8        30.23F
CHESTER        FAIR      70  55  60 S8        30.24F
GROTON         SUNNY     70  57  63 S14       30.23F
WILLIMANTIC    CLOUDY    69  54  58 S12       30.22F

 IN RI

CITY           SKY/WX    TMP DP  RH WIND       PRES   REMARKS
PROVIDENCE     PTSUNNY   70  54  56 SE15G22   30.24F
BLOCK ISLAND   SUNNY     72  52  49 S13       30.26F
WESTERLY       SUNNY     70  53  54 S12       30.25F

 IN MA

CITY           SKY/WX    TMP DP  RH WIND       PRES   REMARKS
BOSTON         PTSUNNY   71  51  49 S15       30.20F
WORCESTER      MOSUNNY   65  53  65 S16G22    30.21F
WESTFIELD      CLOUDY    70  54  56 S16       30.18F
PROVINCETOWN   SUNNY     66  54  63 S13G20    30.25F
NANTUCKET      SUNNY     66  54  65 SE13      30.27F
$$

ANZ330-335-338-340-345-350-353-355-201900-
COASTAL MARINE OBSERVATIONS


STATION/POSITION TIME  SKY/WX   TEMP    WIND        PRES    VSBY  WAVE
                                AIR SEA DIR/SP/G                  HT/PER
                 (UTC)          (F)     (DEG/KT/KT) (MB)    (MI)  (FT/S)
NY HARB ENTRANCE 1800            69 70  160/ 12/ 16 1023.5          4/ 8
4S FIRE IS       1800               69                N/A           4/ 6
20S FIRE ISLAND  1800            69 68  150/ 14/ 16 1023.9          4/ 4
23SW MTP         1800                                 N/A           4/ 9
HUDSON CANYON    1800            71 72  130/ 16/ 17 1023.1          4/ 8
EXECUTION ROCKS  1800            71 70  200/ 14/ 19   N/A
WESTERN LI SOUND 1800            71     180/ 14/ 16   N/A           1
CENTRAL LI SOUND 1700            69 70  180/  8/ 12   N/A           1/ 2
EASTERN LI SOUND 1700            68 68  180/ 10/ 14   N/A
ROBBINS REEF     1800            69     160/ 23/ 25 1021.5
$$


>>>>>>>>>>>>>>>>>>>>>>>>>>>> KEY <<<<<<<<<<<<<<<<<<<<<<<<<<<
>                                                          <
>     SKY/WX - SKY CONDITION/PRESENT WEATHER               <
>     TMP    - TEMPERATURE IN FAHRENHEIT                   <
>     DP     - DEWPOINT IN FAHRENHEIT                      <
>     RH     - RELATIVE HUMIDITY IN PERCENT                <
>     WIND   - DIRECTION AND SPEED IN MPH                  <
>     PRES   - MEAN SEA LEVEL PRESSURE IN INCHES OF HG     <
>     WCI    - WIND CHILL INDEX                            <
>     VSB    - VISIBILITY IN MILES                         <
>     HX     - HEAT INDEX                                  <
>     TC     - TEMPERATURE IN CELSIUS                      <
>     VRB    - VARIABLE WIND DIRECTION                     <
>                                                          <
>>>>>>>>>>>>>>>>>>>>>>>>>>>> KEY <<<<<<<<<<<<<<<<<<<<<<<<<<<




USA.gov is the U.S. government's official web portal to all federal, state and local government web resources and services.